Location: Newark
(41.9364°N, 2.8061°E)
Time: 20:29:49
(UTC+00:00)

Tiros 1 despin weight - All Passes

Search period start: 16 February 2020 00:00
Search period end: 26 February 2020 00:00
Orbit: 594 x 642 km, 48.2° (Epoch: 16 February)

Date Brightness Start Highest point End Pass type
(mag) Time Alt. Az. Time Alt. Az. Time Alt. Az.
16 Feb - 02:10:31 10° SSW 02:14:41 42° SE 02:18:51 10° ENE night (unlit)
16 Feb - 03:51:50 10° W 03:56:11 54° NNW 04:00:31 10° ENE visible
16 Feb - 05:34:12 10° WNW 05:38:18 36° N 05:42:24 10° ENE visible
16 Feb - 07:15:59 10° WNW 07:20:22 60° NNE 07:24:48 10° ESE daylight
16 Feb - 08:57:42 10° WNW 09:01:48 37° SW 09:05:56 10° SSE daylight
17 Feb - 00:47:31 10° S 00:50:08 16° SE 00:52:45 10° E night (unlit)
17 Feb - 02:26:42 10° SW 02:31:07 75° SSE 02:35:32 10° ENE visible
17 Feb - 04:08:43 10° W 04:12:54 41° NNW 04:17:06 10° ENE visible
17 Feb - 05:50:56 10° WNW 05:55:06 39° N 05:59:17 10° E visible
17 Feb - 07:32:32 10° WNW 07:36:59 89° SSW 07:41:27 10° ESE daylight
17 Feb - 09:14:51 10° W 09:18:05 20° SW 09:21:21 10° S daylight
18 Feb - 01:02:31 10° SSW 01:06:22 29° SE 01:10:13 10° E night (unlit)
18 Feb - 02:43:16 10° WSW 02:47:40 68° NNW 02:52:05 10° ENE visible
18 Feb - 04:25:36 10° WNW 04:29:42 36° N 04:33:49 10° ENE visible
18 Feb - 06:07:33 10° WNW 06:11:51 49° NNE 06:16:10 10° E visible
18 Feb - 07:49:09 10° WNW 07:53:28 52° SW 07:57:48 10° SE daylight
18 Feb - 23:41:38 10° SE 23:41:56 10° SE 23:42:14 10° SE night (unlit)
19 Feb - 01:18:24 10° SW 01:22:44 54° SE 01:27:03 10° ENE night (unlit)
19 Feb - 03:00:04 10° W 03:04:21 48° NNW 03:08:39 10° ENE visible
19 Feb - 04:42:24 10° WNW 04:46:31 36° N 04:50:38 10° ENE visible
19 Feb - 06:24:06 10° WNW 06:28:32 71° NNE 06:32:58 10° ESE daylight
19 Feb - 08:06:01 10° W 08:09:49 28° SW 08:13:39 10° SSE daylight
19 Feb - 23:54:48 10° S 23:58:06 21° SE 00:01:24 10° E night (unlit)
20 Feb - 01:34:47 10° WSW 01:39:14 88° NNW 01:43:40 10° ENE night (unlit)
20 Feb - 03:16:58 10° WNW 03:21:08 38° N 03:25:17 10° ENE visible
20 Feb - 04:59:06 10° WNW 05:03:18 42° NNE 05:07:32 10° E visible
20 Feb - 06:40:40 10° WNW 06:45:05 73° SSW 06:49:31 10° SE daylight
20 Feb - 08:23:32 10° W 08:26:03 15° SW 08:28:34 10° SSW daylight
21 Feb - 00:10:16 10° SSW 00:14:23 38° SE 00:18:30 10° ENE night (unlit)
21 Feb - 01:51:28 10° W 01:55:50 58° NNW 02:00:12 10° ENE night (unlit)
21 Feb - 03:33:50 10° WNW 03:37:56 36° N 03:42:01 10° ENE visible
21 Feb - 05:15:41 10° WNW 05:20:02 56° NNE 05:24:24 10° E visible
21 Feb - 06:57:22 10° WNW 07:01:31 40° SW 07:05:40 10° SSE daylight
21 Feb - 22:47:32 10° SSE 22:49:51 14° SE 22:52:12 10° E night (unlit)
22 Feb - 00:26:23 10° SW 00:30:48 69° SSE 00:35:12 10° ENE night (unlit)
22 Feb - 02:08:19 10° W 02:12:33 43° NNW 02:16:47 10° ENE visible
22 Feb - 03:50:36 10° WNW 03:54:44 38° N 03:58:53 10° ENE visible
22 Feb - 05:32:13 10° WNW 05:36:39 85° NNE 05:41:06 10° ESE visible
22 Feb - 07:14:25 10° W 07:17:48 22° SW 07:21:12 10° S daylight
22 Feb - 23:02:19 10° SSW 23:06:05 27° SE 23:09:49 10° E night (unlit)
23 Feb - 00:42:54 10° WSW 00:47:21 73° NNW 00:51:47 10° ENE night (unlit)
23 Feb - 02:25:13 10° WNW 02:29:20 37° N 02:33:27 10° ENE visible
23 Feb - 04:07:13 10° WNW 04:11:31 46° NNE 04:15:46 10° E visible
23 Feb - 05:48:49 10° WNW 05:53:09 57° SW 05:57:29 10° SE visible
23 Feb - 07:32:53 10° WSW 07:33:58 11° SW 07:35:04 10° SW daylight
23 Feb - 23:18:06 10° SW 23:22:26 49° SE 23:26:43 10° ENE night (unlit)
24 Feb - 00:59:40 10° W 01:04:01 50° NNW 01:08:19 10° ENE night (unlit)
24 Feb - 02:42:03 10° WNW 02:46:09 36° N 02:50:15 10° ENE visible
24 Feb - 04:23:47 10° WNW 04:28:12 66° NNE 04:32:35 10° ESE visible
24 Feb - 06:05:38 10° WNW 06:09:31 31° SW 06:13:26 10° SSE visible
24 Feb - 21:54:40 10° S 21:57:49 19° SE 22:00:57 10° E night (unlit)
24 Feb - 23:34:25 10° WSW 23:38:54 86° SSE 23:43:21 10° ENE night (unlit)
25 Feb - 01:16:34 10° W 01:20:45 39° N 01:24:56 10° ENE night (unlit)
25 Feb - 02:58:45 10° WNW 03:02:57 41° N 03:07:08 10° E visible
25 Feb - 04:40:21 10° WNW 04:44:46 79° SSW 04:49:11 10° SE visible
25 Feb - 06:23:00 10° W 06:25:46 16° SW 06:28:33 10° S daylight
25 Feb - 22:09:59 10° SSW 22:14:05 35° SE 22:18:08 10° ENE night (unlit)
25 Feb - 23:51:03 10° WSW 23:55:29 62° NNW 23:59:54 10° ENE night (unlit)
